sat.trackr.live / text

‹ back to catalog

STARLINK-31161

NORAD 58795 · 2024-012J

PAYLOAD ACTIVE UNKNOWN

§ Identity

Operator
Country
US
Launch date
2024-01-15
Launch site
AFETR
Launch vehicle
Mass (kg)
RCS (m²)

Purposes: comms

External: N2YO · Heavens-Above · Gunter

§ Orbital elements

Epoch: 2026-09-20T23:15:02.267136Z

Period
94.27 min
Inclination
43.0012°
Eccentricity
0.0000989
Mean motion
15.27572280 rev/d
Perigee alt
482.4 km
Apogee alt
483.8 km
Semi-major
6,861.2 km
B*
-1.2477e-5
RAAN
142.2224°
Arg perigee
270.1884°
Mean anomaly
89.8855°
Rev number
15,110

§ Raw data

STARLINK-311611 58795U 24012J   26263.96877624 -.00000605  00000+0 -12477-4 0  99982 58795  43.0012 142.2224 0000989 270.1884  89.8855 15.27572280151109

JSON: /api/v1/satellites/58795 · /tle

For live sub-satellite position, see the globe view (requires WebGL).

§ Visibility from observer

Set your observer location to see the next 7 days of passes ≥ 10°. The values pass through the URL so the page stays shareable.

No JS? Fill the form by hand. The geolocation button needs JavaScript.